Theta_e
328 327 326 326 325 326 325 325 326 326 324 324 327 327 326 323 325 327 328 321 328 335 334 333 332 331 330 329 328 326 325 324 323 322 321 321 320 320 319 319 318 318 318
329 327 325 325 325 326 324 328 326 325 324 322 324 327 325 323 324 323 326 325 325 331 335 334 334 334 333 332 331 330 329 328 325 323 322 321 321 320 320 319 319 318 318
329 326 324 323 324 324 324 326 325 325 323 323 322 325 325 324 324 323 324 325 325 323 328 334 334 334 334 334 334 334 333 331 329 326 324 323 322 322 321 320 320 319 319
328 325 324 322 323 324 323 323 323 322 322 321 321 321 322 323 323 324 323 323 323 324 323 328 331 332 332 332 332 331 331 330 331 331 328 325 324 323 322 322 321 321 320
328 326 324 323 323 323 324 324 321 321 320 319 319 318 320 321 322 323 322 321 320 320 319 320 322 323 327 327 328 328 329 329 329 329 329 328 327 325 324 323 323 322 322
328 326 325 324 323 323 322 322 321 320 320 319 320 318 318 319 319 320 320 320 320 318 316 316 315 315 318 321 323 324 326 326 325 321 320 321 322 325 327 326 326 324 323
327 325 324 323 323 322 322 322 319 318 317 319 316 315 315 317 317 317 318 318 315 316 315 314 312 310 310 311 315 316 317 318 316 316 315 315 315 317 318 319 320 321 321
326 324 323 322 323 322 321 321 319 315 315 317 313 309 308 311 313 313 312 312 308 304 302 301 300 299 297 299 302 307 309 311 312 312 311 312 312 313 315 315 316 317 318
325 324 323 323 322 322 320 320 319 316 312 312 315 312 305 304 305 306 299 300 299 299 299 298 297 296 296 295 297 299 303 305 306 308 308 308 310 311 312 313 313 314 314
324 323 323 322 321 321 319 318 319 317 315 311 311 311 309 308 305 302 297 297 295 294 294 294 293 293 293 294 294 295 297 300 301 302 303 304 305 307 308 309 310 311 312
308 322 321 320 317 314 307 307 307 304 305 302 303 303 305 302 302 303 302 296 293 292 292 292 292 291 292 291 292 292 294 296 297 297 297 297 298 301 303 304 306 307 308
297 299 301 300 299 298 298 296 295 295 295 293 292 290 290 292 293 295 296 294 293 289 290 291 290 290 291 291 291 291 290 292 291 291 291 292 293 295 296 297 298 299 300
291 292 293 293 292 292 292 291 290 289 288 287 287 286 286 285 287 289 289 290 290 290 290 290 290 289 288 287 286 285 285 286 288 288 289 289 290 291 292 293 294 295 296
288 289 289 289 289 288 287 287 285 285 284 284 283 282 282 282 283 283 283 283 286 285 287 286 290 283 283 283 283 283 280 283 285 286 286 287 288 288 289 291 291 292 293
286 285 285 284 284 284 284 283 282 280 280 280 280 280 279 279 280 280 280 280 281 278 283 285 281 281 280 280 280 279 277 281 282 283 284 284 285 286 287 288 288 289 290
282 282 282 281 281 281 281 281 279 279 279 279 278 278 278 278 278 278 278 277 277 276 276 279 279 278 279 279 279 276 276 278 279 280 280 281 283 283 283 284 285 286 287
280 279 279 279 279 279 279 279 278 278 277 277 278 277 276 277 276 275 275 275 274 274 272 275 277 277 276 276 276 274 275 274 274 276 278 280 280 280 281 281 282 282 282
279 279 279 278 278 278 278 277 276 276 276 275 276 275 274 276 275 274 274 273 272 273 272 270 272 273 273 274 273 271 272 273 271 274 277 277 277 277 278 278 278 279 279
277 277 277 276 276 276 276 276 276 275 274 273 273 272 273 273 272 273 272 272 271 272 270 270 270 272 272 272 270 270 269 269 271 273 274 274 275 275 275 276 276 277 276
278 277 276 275 275 274 274 273 273 271 271 272 272 272 272 272 272 273 273 272 272 271 271 269 269 269 270 269 268 266 265 267 267 269 270 271 272 272 273 274 274 274 274
277 278 277 277 277 275 274 272 272 271 271 270 271 272 271 273 276 275 273 272 271 269 269 268 267 266 265 264 264 265 265 265 265 267 266 266 266 266 266 269 270 271 273
276 276 276 276 276 277 279 277 273 271 271 270 270 270 271 271 273 274 274 273 271 269 267 266 265 263 264 264 265 265 264 262 260 267 264 262 265 264 265 266 270 273 274
274 274 276 276 276 277 279 277 276 273 272 270 269 269 269 271 272 272 271 270 269 271 271 267 263 263 263 264 265 264 263 263 262 263 262 260 263 262 265 266 270 272 274
272 272 273 276 276 277 278 277 275 272 271 270 268 268 268 269 272 272 268 266 266 267 268 267 266 265 266 267 266 265 264 262 262 262 264 258 262 261 264 265 270 271 273
271 272 273 273 274 275 278 276 274 271 270 269 268 267 267 270 273 274 267 264 265 267 268 269 269 269 269 269 268 265 259 258 257 259 262 260 261 261 262 262 264 270 272
272 272 272 272 272 273 277 277 273 271 268 267 267 267 269 271 272 272 267 264 264 266 262 262 261 262 264 263 266 263 261 257 257 257 263 260 260 261 258 262 263 264 263
Wind_Speed
10 9 8 8 6 5 5 5 6 5 5 6 7 8 8 6 6 3 4 12 12 13 15 15 16 17 17 16 15 15 15 16 17 17 17 17 16 16 16 15 15 15 15
10 9 9 9 8 6 4 6 6 6 5 5 6 8 7 5 5 6 4 7 12 11 13 16 17 19 19 20 20 20 20 21 21 19 19 19 18 17 17 17 17 17 17
13 11 8 8 8 6 6 4 4 4 4 4 5 5 4 5 4 5 4 5 7 10 10 12 14 13 14 16 18 20 21 22 21 22 21 21 20 19 19 19 19 19 20
13 11 9 8 8 7 5 4 5 4 4 4 3 4 4 4 4 3 4 4 4 5 7 10 11 14 15 16 15 15 16 15 15 20 22 23 23 23 23 22 22 21 22
14 11 7 7 9 8 7 5 2 4 3 3 4 3 4 4 4 3 3 3 5 4 3 6 10 9 11 14 14 15 16 17 18 18 17 22 26 27 25 26 26 26 26
14 12 9 5 6 7 6 4 5 2 3 4 2 3 4 2 1 3 4 3 2 4 4 3 0 1 4 6 8 11 12 12 12 15 17 17 19 13 22 30 30 28 29
9 9 7 7 5 3 8 8 4 5 2 4 3 2 1 4 2 3 3 3 2 4 6 6 6 5 7 18 18 16 12 14 15 15 15 14 13 14 16 19 18 18 19
15 13 10 9 9 4 3 7 6 3 2 3 3 2 3 2 3 3 4 4 8 6 8 10 10 10 8 6 11 17 16 16 15 14 16 17 18 16 17 16 17 18 21
12 11 14 10 9 7 7 5 5 6 4 2 5 3 2 3 2 4 7 7 8 7 7 8 10 10 9 7 9 12 18 17 17 17 16 16 18 18 18 19 20 21 22
10 12 11 7 6 4 5 4 4 3 4 4 2 1 4 3 2 3 3 5 7 8 8 7 7 8 9 7 11 16 18 17 17 17 17 18 20 21 20 21 21 22 22
12 6 8 6 5 6 8 10 8 8 5 4 4 3 4 4 3 2 3 3 5 5 5 6 6 6 9 8 7 11 17 18 17 18 20 20 20 21 21 22 23 23 23
8 14 13 14 12 11 10 11 13 15 11 11 8 10 7 4 3 2 3 3 4 4 3 5 5 5 5 5 7 12 17 18 19 20 21 21 20 20 22 22 23 24 25
11 14 12 13 13 14 14 14 16 17 14 13 12 11 9 10 7 4 5 3 3 2 3 3 4 7 7 6 6 13 17 19 20 20 20 20 21 22 23 23 24 24 25
12 14 16 17 18 16 16 17 15 14 14 14 18 14 8 10 9 9 4 3 2 4 2 2 3 6 6 6 10 14 8 17 19 21 21 21 23 24 24 25 26 27 27
13 18 19 18 19 19 18 17 15 16 18 11 15 12 9 10 9 7 7 6 2 1 1 2 2 7 7 6 10 8 9 19 21 20 23 24 24 26 26 27 29 29 30
18 19 19 19 21 19 17 16 16 16 15 11 10 14 12 8 8 7 7 6 6 3 2 3 3 7 8 8 10 9 11 17 19 22 26 25 26 27 29 29 28 27 27
19 20 19 19 19 18 14 16 17 17 18 15 13 13 13 10 7 7 7 6 6 5 3 3 5 8 10 9 8 9 11 11 9 25 24 26 28 29 26 28 30 30 32
18 18 18 19 18 17 16 18 18 16 16 14 13 13 12 7 8 7 7 5 6 4 4 8 7 7 9 10 8 12 11 11 10 18 25 27 24 24 27 29 34 33 30
19 20 18 18 17 16 17 15 15 15 14 12 11 11 10 10 9 6 4 5 2 4 2 4 7 7 7 7 10 10 11 10 10 20 23 20 22 22 33 30 32 30 31
19 17 17 17 17 15 15 13 13 13 11 10 11 11 11 10 10 8 8 8 6 6 7 6 7 7 8 10 9 11 11 9 11 13 14 20 26 29 30 29 30 31 31
17 14 16 15 13 13 9 12 11 9 10 11 9 10 11 13 19 16 8 9 10 8 7 7 8 8 8 10 12 10 11 12 11 10 9 12 14 12 13 21 25 29 31
17 14 15 14 14 11 23 22 12 10 10 11 10 7 8 11 13 17 18 16 12 10 10 8 8 10 12 11 9 11 12 13 11 4 14 15 13 13 13 13 27 35 37
13 13 14 15 14 13 21 22 19 10 9 9 11 10 10 10 10 10 14 16 13 15 13 11 11 10 12 12 13 14 14 13 15 14 13 18 13 15 14 15 31 37 40
12 11 13 13 14 15 22 20 16 10 9 10 11 11 10 11 13 13 10 10 9 9 9 9 9 10 11 12 11 12 15 15 14 12 10 17 14 17 16 14 36 41 40
12 11 11 12 13 14 24 19 13 9 10 10 10 10 9 8 19 23 10 12 11 10 10 18 18 20 21 22 18 10 10 11 16 15 10 13 12 20 18 19 17 31 33
10 10 12 11 11 11 20 21 15 8 7 6 7 10 16 17 21 18 8 9 10 10 10 11 11 15 16 14 20 9 10 12 13 17 6 12 17 14 13 10 13 14 16
Wind_Direction
177 171 170 169 170 171 156 153 158 171 181 179 175 183 191 195 186 161 163 188 196 196 200 200 200 204 208 211 214 221 224 223 219 219 220 222 224 226 228 231 236 238 240
173 177 175 171 174 176 156 163 165 174 189 173 180 184 174 185 175 153 165 192 199 205 214 216 217 218 219 218 218 218 222 224 223 222 223 228 231 232 234 236 239 242 243
173 169 173 174 173 169 158 156 150 161 175 178 177 176 169 175 181 162 164 179 200 209 219 231 240 253 257 261 251 247 246 239 231 226 228 229 229 233 236 237 239 244 246
162 160 168 172 164 166 156 158 158 157 165 182 181 157 167 168 175 190 170 172 185 195 215 235 247 253 261 268 274 279 284 281 272 251 242 238 233 233 233 235 234 241 246
157 159 173 170 166 165 163 152 132 145 157 160 175 161 157 157 171 189 224 208 179 199 187 230 237 251 271 281 291 296 296 292 291 292 287 256 243 241 236 237 237 237 236
163 155 150 169 168 158 146 140 142 161 168 159 159 160 155 135 172 204 226 221 240 223 209 209 229 310 337 341 339 323 316 331 13 26 20 5 13 327 260 250 243 238 237
131 136 145 153 130 178 167 160 137 165 166 151 118 82 69 135 199 214 228 226 289 352 11 27 36 31 44 49 45 35 19 12 1 354 354 348 346 339 330 330 325 329 320
147 138 150 148 160 159 198 163 143 128 141 184 130 119 144 212 242 242 41 61 57 59 55 52 57 50 44 35 37 32 24 15 10 10 357 349 340 331 326 323 320 315 312
133 143 151 172 181 173 177 175 151 148 143 179 152 159 102 198 124 36 42 53 54 47 47 51 49 50 53 48 29 27 18 15 9 4 0 354 342 338 331 323 314 308 303
156 153 138 143 163 153 154 162 183 165 154 158 124 7 85 124 184 157 55 56 60 55 43 45 42 48 45 45 35 16 12 9 6 357 354 347 339 331 326 321 317 316 314
27 136 133 109 87 75 77 79 63 51 29 73 44 26 54 59 27 140 162 141 82 52 63 62 64 38 42 34 28 17 9 4 3 360 354 344 336 332 330 325 323 320 318
44 45 63 76 71 66 61 65 71 72 68 70 60 56 55 32 36 5 79 67 79 66 67 70 46 48 41 30 24 17 8 5 355 350 344 338 334 336 333 329 326 324 321
50 51 57 78 74 78 74 76 73 68 65 73 65 59 52 49 37 22 41 36 74 88 64 53 55 41 28 21 14 23 6 358 349 347 342 342 337 333 330 325 322 321 316
68 68 69 69 77 75 78 79 74 70 70 67 70 62 58 54 41 41 45 5 65 34 80 38 67 49 16 4 350 14 357 353 349 343 338 342 334 329 326 324 320 317 313
76 72 69 70 70 69 67 75 81 74 66 59 65 67 62 57 50 41 38 33 348 34 346 49 34 37 360 353 346 10 4 347 341 341 343 332 332 328 325 325 321 315 311
70 71 72 71 68 67 68 70 75 73 75 68 60 58 52 48 49 40 44 37 32 14 329 3 16 349 346 345 359 9 349 348 340 339 333 331 328 329 323 318 314 312 317
71 72 71 71 73 72 72 76 74 77 73 69 63 64 62 51 49 47 41 38 27 23 360 305 329 335 341 343 349 357 342 339 347 331 328 327 324 319 320 324 319 317 313
68 72 71 73 74 73 68 72 73 73 72 68 66 63 56 48 46 39 37 31 27 18 344 319 310 333 335 337 352 342 338 335 324 320 325 317 317 322 312 318 305 302 303
67 66 67 69 70 71 73 65 74 75 76 71 66 60 50 41 36 24 26 13 24 357 293 299 308 322 332 342 342 325 327 319 316 322 314 315 318 315 309 309 306 304 305
73 75 70 71 70 68 71 75 72 68 70 70 65 55 44 34 31 24 20 8 6 353 351 341 327 340 340 344 329 327 327 321 317 314 305 313 316 305 307 306 304 301 299
74 74 78 74 80 79 75 69 71 72 67 65 55 56 47 27 30 30 15 9 10 359 354 338 342 334 334 337 338 327 317 319 317 298 308 312 300 298 292 294 291 294 290
70 66 68 72 71 71 75 76 75 73 64 58 52 40 41 27 19 24 17 17 14 4 1 359 344 336 336 328 321 325 320 325 318 299 322 303 301 297 289 284 288 292 293
68 65 67 68 63 61 65 66 62 62 66 58 55 39 28 13 8 25 16 11 8 3 7 5 335 334 322 318 322 321 320 310 302 309 314 298 303 293 292 290 293 291 290
66 62 58 61 65 59 54 55 61 61 56 55 47 35 18 6 1 13 17 358 354 351 1 346 336 316 304 313 315 313 306 300 292 293 292 286 310 290 292 293 291 288 287
64 60 58 55 58 55 50 50 48 48 48 41 37 27 4 354 4 8 14 353 345 340 356 336 326 319 318 318 315 314 295 309 301 299 304 282 294 300 299 287 276 278 283
70 60 56 48 52 43 43 41 43 38 38 34 26 18 7 5 5 357 16 342 332 347 344 339 320 318 317 299 309 300 299 292 294 303 312 302 298 304 295 278 282 287 284